This demonstration page uses our WeatherBlox Daily Observations layout. Learn more.

Left ArrowRight Arrow

Hourly Observations for January 6, 2020

Temp ( °F °C ) Dew Point ( °F °C ) Humidity (%) Winds ( mph kmh ) Pressure ( in mb ) Visibility ( mi km ) Precip ( " mm )
12:15 am 00:15 Clear 34 1 32 0 93 93 W 10 17 30.1 1019 10 16.0934 N/A
12:35 am 00:35 Partly Cloudy 34 1 32 0 93 93 W 16 26 30.11 1020 10 16.0934 N/A
12:56 am 00:56 Partly Cloudy 34 1 32 0 93 93 W 13 20 30.11 1020 10 16.0934 N/A
1:15 am 01:15 Partly Cloudy 34 1 32 0 93 93 WNW 13 20 30.11 1020 10 16.0934 N/A
1:36 am 01:36 Clear 34 1 32 0 93 93 WNW 14 22 30.12 1020 10 16.0934 N/A
1:56 am 01:56 Partly Cloudy 34 1 32 0 93 93 WNW 17 28 30.12 1020 10 16.0934 N/A
2:15 am 02:15 Clear 32 0 30 -1 93 93 WNW 15 24 30.14 1020 10 16.0934 N/A
2:35 am 02:35 Clear 32 0 30 -1 93 93 WNW 16 26 30.15 1021 10 16.0934 N/A
2:56 am 02:56 Clear 32 0 30 -1 93 93 WNW 15 24 30.17 1022 10 16.0934 N/A
3:15 am 03:15 Clear 32 0 30 -1 93 93 WNW 16 26 30.17 1022 10 16.0934 N/A
3:36 am 03:36 Clear 32 0 30 -1 93 93 WNW 15 24 30.18 1022 10 16.0934 N/A
3:56 am 03:56 Clear 32 0 30 -1 93 93 WNW 16 26 30.18 1022 10 16.0934 N/A
4:15 am 04:15 Clear 30 -1 30 -1 100 100 WNW 12 19 30.18 1022 10 16.0934 N/A
4:35 am 04:35 Clear 30 -1 30 -1 100 100 NW 13 20 30.18 1022 10 16.0934 N/A
4:56 am 04:56 Clear 30 -1 28 -2 93 93 NW 12 19 30.17 1022 10 16.0934 N/A
5:15 am 05:15 Clear 30 -1 28 -2 93 93 WNW 10 17 30.18 1022 10 16.0934 N/A
5:36 am 05:36 Clear 30 -1 28 -2 93 93 NW 9 15 30.18 1022 10 16.0934 N/A
5:55 am 05:55 Clear 28 -2 28 -2 100 100 WNW 8 13 30.19 1022 10 16.0934 N/A
6:15 am 06:15 Clear 28 -2 28 -2 100 100 WNW 7 11 30.19 1022 10 16.0934 N/A
6:35 am 06:35 Clear 27 -3 27 -3 100 100 W 6 9 30.21 1023 10 16.0934 N/A
6:55 am 06:55 Clear 27 -3 27 -3 100 100 WNW 7 11 30.22 1023 10 16.0934 N/A
7:16 am 07:16 Clear 27 -3 27 -3 100 100 WNW 7 11 30.22 1023 10 16.0934 N/A
7:36 am 07:36 Clear 27 -3 27 -3 100 100 W 6 9 30.23 1024 10 16.0934 N/A
7:56 am 07:56 Clear 25 -4 25 -4 100 100 W 5 7 30.24 1024 10 16.0934 N/A
8:15 am 08:15 Sunny 23 -5 23 -5 100 100 WSW 5 7 30.25 1025 10 16.0934 N/A
8:35 am 08:35 Sunny 25 -4 25 -4 100 100 WSW 6 9 30.26 1025 10 16.0934 N/A
8:56 am 08:56 Sunny 28 -2 28 -2 100 100 WSW 7 11 30.26 1025 10 16.0934 N/A
9:15 am 09:15 Sunny 30 -1 28 -2 93 93 WSW 5 7 30.26 1025 10 16.0934 N/A
9:36 am 09:36 Sunny 32 0 30 -1 93 93 W 6 9 30.27 1025 10 16.0934 N/A
9:56 am 09:56 Sunny 32 0 28 -2 87 87 W 6 9 30.28 1025 10 16.0934 N/A
10:16 am 10:16 Sunny 32 0 30 -1 93 93 W 6 9 30.29 1026 10 16.0934 N/A
10:35 am 10:35 Sunny 34 1 28 -2 81 81 WSW 5 7 30.28 1025 10 16.0934 N/A
10:55 am 10:55 Sunny 36 2 28 -2 75 75 WSW 5 7 30.28 1025 10 16.0934 N/A
11:15 am 11:15 Sunny 36 2 28 -2 75 75 SW 6 9 30.28 1025 10 16.0934 N/A
11:36 am 11:36 Sunny 36 2 28 -2 75 75 SW 5 7 30.27 1025 10 16.0934 N/A
11:56 am 11:56 Sunny 37 3 28 -2 70 70 Calm 30.26 1025 10 16.0934 N/A
12:15 pm 12:15 Sunny 37 3 28 -2 70 70 SSW 5 7 30.25 1025 10 16.0934 N/A
12:35 pm 12:35 Sunny 37 3 28 -2 70 70 SW 5 7 30.24 1024 10 16.0934 N/A
12:55 pm 12:55 Sunny 37 3 30 -1 75 75 SW 5 7 30.23 1024 10 16.0934 N/A
1:15 pm 13:15 Sunny 39 4 28 -2 65 65 WSW 7 11 30.22 1023 10 16.0934 N/A
1:36 pm 13:36 Sunny 39 4 28 -2 65 65 SW 5 7 30.21 1023 10 16.0934 N/A
1:56 pm 13:56 Sunny 41 5 28 -2 61 61 SSW 6 9 30.19 1022 10 16.0934 N/A
2:16 pm 14:16 Sunny 41 5 28 -2 61 61 WSW 3 6 30.19 1022 10 16.0934 N/A
2:36 pm 14:36 Sunny 43 6 28 -2 57 57 WSW 3 6 30.18 1022 10 16.0934 N/A
2:55 pm 14:55 Sunny 45 7 28 -2 53 53 Calm 30.17 1022 10 16.0934 N/A
3:16 pm 15:16 Sunny 43 6 28 -2 57 57 W 3 6 30.16 1021 10 16.0934 N/A
3:35 pm 15:35 Sunny 43 6 27 -3 53 53 SW 3 6 30.17 1022 10 16.0934 N/A
3:55 pm 15:55 Sunny 43 6 27 -3 53 53 W 5 7 30.17 1022 10 16.0934 N/A
4:15 pm 16:15 Sunny 43 6 27 -3 53 53 Calm 30.17 1022 10 16.0934 N/A
4:35 pm 16:35 Sunny 41 5 27 -3 57 57 Calm 30.18 1022 10 16.0934 N/A
4:55 pm 16:55 Sunny 41 5 27 -3 57 57 Calm 30.18 1022 10 16.0934 N/A
5:15 pm 17:15 Sunny 39 4 27 -3 61 61 Calm 30.19 1022 10 16.0934 N/A
5:36 pm 17:36 Clear 37 3 27 -3 65 65 Calm 30.19 1023 10 16.0934 N/A
5:55 pm 17:55 Clear 37 3 27 -3 65 65 SSW 3 6 30.19 1023 10 16.0934 N/A
6:16 pm 18:16 Clear 36 2 27 -3 70 70 SSW 3 6 30.2 1023 10 16.0934 N/A
6:35 pm 18:35 Clear 34 1 27 -3 75 75 SSW 3 6 30.2 1023 10 16.0934 N/A
6:55 pm 18:55 Clear 34 1 27 -3 75 75 Calm 30.2 1023 10 16.0934 N/A
7:15 pm 19:15 Clear 34 1 27 -3 75 75 Calm 30.2 1023 10 16.0934 N/A
7:35 pm 19:35 Clear 34 1 28 -2 81 81 Calm 30.2 1023 10 16.0934 N/A
7:55 pm 19:55 Clear 32 0 28 -2 87 87 Calm 30.2 1023 10 16.0934 N/A
8:15 pm 20:15 Clear 32 0 28 -2 87 87 Calm 30.19 1022 10 16.0934 N/A
8:35 pm 20:35 Clear 32 0 28 -2 87 87 Calm 30.19 1022 10 16.0934 N/A
8:56 pm 20:56 Clear 32 0 28 -2 87 87 Calm 30.18 1022 10 16.0934 N/A
9:15 pm 21:15 Clear 32 0 28 -2 87 87 Calm 30.18 1022 10 16.0934 N/A
9:36 pm 21:36 Clear 28 -2 28 -2 100 100 Calm 30.18 1022 10 16.0934 N/A
9:56 pm 21:56 Clear 30 -1 30 -1 100 100 S 3 6 30.17 1022 10 16.0934 N/A
10:15 pm 22:15 Clear 30 -1 28 -2 93 93 SSE 5 7 30.17 1022 10 16.0934 N/A
10:35 pm 22:35 Clear 30 -1 28 -2 93 93 Calm 30.16 1021 10 16.0934 N/A
10:56 pm 22:56 Clear 28 -2 28 -2 100 100 Calm 30.15 1021 10 16.0934 N/A
11:16 pm 23:16 Clear 27 -3 27 -3 100 100 Calm 30.15 1021 10 16.0934 N/A
11:36 pm 23:36 Clear 28 -2 28 -2 100 100 SE 3 6 30.13 1020 10 16.0934 N/A
11:55 pm 23:55 Clear 27 -3 27 -3 100 100 Calm 30.13 1020 10 16.0934 N/A

Powered by AerisWeather